GW3919 Weather Reports


time (UTC)temp
C
wind
direction
speed
KPH
gust
KPH
rain 1hr
cm
rain 24hr
cm
rain mn
cm
humidity
%
barometer
mb
20260509112545 20 285 0.0 1.6 0.00 0.00 0.00 99 1009.4
20260509112042 20 269 0.0 1.6 0.00 0.00 0.00 98 1009.3
20260509111539 20 246 0.0 1.6 0.00 0.00 0.00 98 1009.2
20260509111036 20 124 0.0 3.2 0.00 0.00 0.00 98 1009.1
20260509110533 20 292 0.0 3.2 0.00 0.00 0.00 98 1009.0
20260509110030 20 244 1.6 3.2 0.00 0.00 0.00 97 1009.1
20260509105529 21 315 0.0 3.2 0.00 0.00 0.00 97 1009.0
20260509105026 21 295 0.0 1.6 0.00 0.00 0.00 97 1009.0
20260509104522 21 269 0.0 1.6 0.00 0.00 0.00 97 1009.1
20260509104019 21 302 0.0 1.6 0.00 0.00 0.00 97 1009.0
20260509103517 21 283 0.0 0.0 0.00 0.00 0.00 97 1008.9
20260509103015 21 283 0.0 1.6 0.00 0.00 0.00 97 1009.1
20260509102512 21 304 0.0 1.6 0.00 0.00 0.00 97 1009.0
20260509102009 21 133 0.0 1.6 0.00 0.00 0.00 97 1009.0
20260509101505 21 182 0.0 3.2 0.00 0.00 0.00 97 1008.8
20260509101002 21 218 0.0 6.4 0.00 0.00 0.00 97 1008.9
20260509100459 21 136 4.8 6.4 0.00 0.00 0.00 97 1008.8
20260509095956 21 133 0.0 3.2 0.00 0.00 0.00 97 1008.5
20260509095453 21 130 3.2 6.4 0.00 0.00 0.00 97 1008.5
20260509094950 21 167 1.6 4.8 0.00 0.00 0.00 97 1008.3
20260509094447 21 304 1.6 3.2 0.00 0.00 0.00 97 1008.2
20260509093944 21 317 1.6 3.2 0.00 0.00 0.00 97 1008.4
20260509093442 21 138 3.2 6.4 0.00 0.00 0.00 97 1008.3
20260509092939 20 171 1.6 3.2 0.00 0.00 0.00 97 1007.4
20260509092437 20 315 0.0 4.8 0.00 0.00 0.00 97 1007.4
20260509091936 20 74 3.2 4.8 0.00 0.00 0.00 97 1007.1
20260509091432 20 252 0.0 4.8 0.00 0.00 0.00 97 1006.7
20260509090929 20 345 3.2 6.4 0.00 0.00 0.00 97 1006.9
20260509090426 20 27 3.2 6.4 0.00 0.00 0.00 97 1006.9
20260509085924 20 342 3.2 3.2 0.00 0.00 0.00 97 1006.8
20260509085421 20 334 4.8 6.4 0.00 0.00 0.00 97 1006.9
20260509084917 20 334 3.2 4.8 0.00 0.00 0.00 97 1007.4
20260509084414 20 340 3.2 6.4 0.00 0.00 0.00 97 1007.6
20260509083912 20 272 4.8 6.4 0.00 0.00 0.00 96 1007.8
20260509083409 21 282 3.2 6.4 0.00 0.00 0.00 96 1008.1
20260509082905 21 279 1.6 4.8 0.00 0.00 0.00 96 1008.5
20260509082402 21 336 3.2 6.4 0.00 0.00 0.00 96 1008.7
20260509081859 21 306 1.6 3.2 0.00 0.00 0.00 96 1009.3
20260509081356 21 324 0.0 4.8 0.00 0.00 0.00 95 1009.3
20260509080854 21 298 3.2 3.2 0.00 0.00 0.00 95 1009.4
20260509080352 21 316 3.2 3.2 0.00 0.00 0.00 95 1009.7
20260509075850 21 321 1.6 3.2 0.00 0.00 0.00 95 1009.7
20260509075346 21 337 0.0 3.2 0.00 0.00 0.00 95 1009.8
20260509074844 21 291 1.6 3.2 0.00 0.00 0.00 95 1010.1
20260509074341 21 282 3.2 4.8 0.00 0.00 0.00 95 1010.0
20260509073837 21 142 0.0 1.6 0.00 0.00 0.00 95 1010.2
20260509073334 21 235 0.0 0.0 0.00 0.00 0.00 95 1010.3
20260509072831 21 274 1.6 1.6 0.00 0.00 0.00 95 1010.4
20260509072327 20 323 0.0 4.8 0.00 0.00 0.00 95 1010.6
20260509071824 20 312 0.0 3.2 0.00 0.00 0.00 95 1010.8
20260509071321 20 46 1.6 3.2 0.00 0.00 0.00 95 1010.9
20260509070818 20 77 0.0 3.2 0.00 0.00 0.00 95 1010.8
20260509070315 20 95 1.6 1.6 0.00 0.00 0.00 95 1010.5
20260509065811 20 156 1.6 3.2 0.00 0.00 0.00 95 1010.2
20260509065307 20 97 3.2 3.2 0.00 0.00 0.00 95 1010.0
20260509064803 20 95 0.0 1.6 0.00 0.00 0.00 95 1009.7
20260509064301 20 129 0.0 0.0 0.00 0.00 0.00 94 1010.1
20260509063759 20 224 0.0 0.0 0.00 0.00 0.00 94 1010.2
20260509063254 20 32 0.0 3.2 0.00 0.00 0.00 94 1010.2
20260509062752 21 349 0.0 3.2 0.00 0.00 0.00 94 1010.4
20260509062249 21 37 0.0 0.0 0.00 0.00 0.00 93 1010.4
20260509061746 21 303 1.6 3.2 0.00 0.00 0.00 93 1010.5
20260509061244 21 89 0.0 0.0 0.00 0.00 0.00 93 1010.7
20260509060741 21 297 0.0 0.0 0.00 0.00 0.00 92 1010.7
20260509060237 21 129 0.0 0.0 0.00 0.00 0.00 92 1011.0
20260509055733 21 86 1.6 3.2 0.00 0.00 0.00 91 1011.1
20260509055229 21 1 0.0 3.2 0.00 0.00 0.00 91 1010.8
20260509054726 21 299 1.6 3.2 0.00 0.00 0.00 91 1010.9
20260509054223 21 89 0.0 1.6 0.00 0.00 0.00 91 1011.1
20260509053721 21 127 0.0 3.2 0.00 0.00 0.00 91 1011.6
20260509053218 21 152 0.0 3.2 0.00 0.00 0.00 90 1011.4
20260509052716 21 157 0.0 3.2 0.00 0.00 0.00 90 1011.1
20260509052213 21 180 0.0 1.6 0.00 0.00 0.00 90 1010.9
20260509051711 22 241 1.6 1.6 0.00 0.00 0.00 89 1010.5
20260509051208 22 210 1.6 3.2 0.00 0.00 0.00 89 1010.2
20260509050705 22 168 1.6 3.2 0.00 0.00 0.00 88 1010.1
20260509050201 22 284 1.6 3.2 0.00 0.00 0.00 88 1010.1
20260509045659 22 319 3.2 3.2 0.00 0.00 0.00 88 1010.0
20260509045155 22 285 3.2 3.2 0.00 0.00 0.00 87 1010.3
20260509044653 22 136 0.0 3.2 0.00 0.00 0.00 87 1010.0
20260509044150 22 331 1.6 3.2 0.00 0.00 0.00 87 1009.8
20260509043647 22 272 1.6 3.2 0.00 0.00 0.00 87 1009.7
20260509043142 22 306 0.0 3.2 0.00 0.00 0.00 87 1010.0
20260509042639 22 304 0.0 3.2 0.00 0.00 0.00 87 1010.1
20260509042135 22 0 1.6 3.2 0.00 0.00 0.00 87 1010.4
20260509041632 22 354 0.0 3.2 0.00 0.00 0.00 87 1010.5
20260509041129 22 279 1.6 1.6 0.00 0.00 0.00 86 1010.8
20260509040628 22 127 0.0 0.0 0.00 0.00 0.00 86 1010.9
20260509040124 22 309 0.0 0.0 0.00 0.00 0.00 86 1010.8
20260509035621 22 129 0.0 0.0 0.00 0.00 0.00 86 1010.9
20260509035118 22 251 0.0 1.6 0.00 0.00 0.00 86 1010.8
20260509034616 22 287 0.0 3.2 0.00 0.00 0.00 86 1010.6
20260509034112 22 327 1.6 3.2 0.00 0.00 0.00 86 1010.3
20260509033609 22 324 1.6 3.2 0.00 0.00 0.00 85 1009.8
20260509033106 22 304 0.0 3.2 0.00 0.00 0.00 85 1009.8
20260509032604 22 235 0.0 0.0 0.00 0.00 0.00 85 1010.2
20260509032100 22 256 0.0 1.6 0.00 0.00 0.00 85 1010.1
20260509031558 22 306 1.6 3.2 0.00 0.00 0.00 85 1010.0
20260509031055 22 329 0.0 3.2 0.00 0.00 0.00 85 1009.8
20260509030554 22 161 0.0 1.6 0.00 0.00 0.00 84 1009.8
20260509030050 22 40 1.6 3.2 0.00 0.00 0.00 84 1009.8
20260509025546 22 304 0.0 4.8 0.00 0.00 0.00 84 1009.6
20260509025042 22 293 1.6 3.2 0.00 0.00 0.00 84 1009.6
20260509024538 22 225 1.6 3.2 0.00 0.00 0.00 84 1009.5
20260509024034 22 269 1.6 3.2 0.00 0.00 0.00 84 1009.4
20260509023532 22 337 3.2 3.2 0.00 0.00 0.00 84 1009.2
20260509023028 22 89 0.0 3.2 0.00 0.00 0.00 84 1009.3
20260509022525 22 305 3.2 4.8 0.00 0.00 0.00 84 1009.0
20260509022023 22 327 3.2 3.2 0.00 0.00 0.00 84 1008.9
20260509021520 22 277 1.6 3.2 0.00 0.00 0.00 84 1009.0
20260509021017 22 304 0.0 3.2 0.00 0.00 0.00 83 1009.1
20260509020515 22 301 1.6 3.2 0.00 0.00 0.00 83 1009.1
20260509020012 22 272 3.2 3.2 0.00 0.00 0.00 82 1008.9
20260509015511 22 348 1.6 3.2 0.00 0.00 0.00 82 1009.2
20260509015008 22 298 1.6 1.6 0.00 0.00 0.00 82 1009.3
20260509014504 22 349 0.0 3.2 0.00 0.00 0.00 82 1009.2
20260509014000 22 347 3.2 3.2 0.00 0.00 0.00 82 1009.0
20260509013457 22 260 3.2 3.2 0.00 0.00 0.00 82 1009.1
20260509012953 22 258 3.2 3.2 0.00 0.00 0.00 82 1009.0
20260509012449 22 309 0.0 4.8 0.00 0.00 0.00 82 1009.0
20260509011946 22 298 0.0 3.2 0.00 0.00 0.00 82 1008.7
20260509011444 22 334 0.0 1.6 0.00 0.00 0.00 81 1008.7
20260509010942 22 317 1.6 3.2 0.00 0.00 0.00 81 1008.6
20260509010439 22 242 0.0 1.6 0.00 0.00 0.00 81 1008.5
20260509005936 22 106 0.0 3.2 0.00 0.00 0.00 81 1008.4
20260509005434 22 257 1.6 3.2 0.00 0.00 0.00 81 1008.3
20260509004934 23 347 0.0 3.2 0.00 0.00 0.00 81 1008.4
20260509004431 23 293 0.0 3.2 0.00 0.00 0.00 80 1008.3
20260509003929 23 277 3.2 3.2 0.00 0.00 0.00 80 1008.2
20260509003426 23 253 0.0 4.8 0.00 0.00 0.00 80 1008.3
20260509002923 23 308 1.6 3.2 0.00 0.00 0.00 80 1008.3
20260509002421 23 138 1.6 3.2 0.00 0.00 0.00 80 1008.4
20260509001913 23 314 1.6 3.2 0.00 0.00 0.00 79 1008.3
20260509001409 23 242 0.0 3.2 0.00 0.00 0.00 79 1008.5
20260509000906 23 322 3.2 3.2 0.00 0.00 0.00 78 1008.4
20260509000404 23 191 0.0 3.2 0.00 0.00 0.00 78 1008.5
20260508235859 23 50 1.6 4.8 0.00 0.00 0.00 78 1008.5
20260508235357 23 251 1.6 4.8 0.00 0.00 0.00 78 1008.6
20260508234854 23 268 3.2 3.2 0.00 0.00 0.00 77 1008.7
20260508234350 23 283 1.6 3.2 0.00 0.00 0.00 77 1008.8
20260508233849 23 341 3.2 3.2 0.00 0.00 0.00 76 1008.8
20260508233348 23 348 3.2 3.2 0.00 0.00 0.00 76 1008.8
20260508232844 23 302 3.2 4.8 0.00 0.00 0.00 76 1008.8
20260508232340 24 325 0.0 6.4 0.00 0.00 0.00 74 1008.9
20260508231839 26 183 0.0 3.2 0.00 0.00 0.00 70 1008.7
20260508231335 25 86 1.6 4.8 0.00 0.00 0.00 71 1008.7
20260508230832 25 359 0.0 3.2 0.00 0.00 0.00 71 1008.8
20260508230328 25 333 3.2 4.8 0.00 0.00 0.00 71 1008.6
20260508225826 25 331 4.8 4.8 0.00 0.00 0.00 70 1008.8
20260508225322 25 349 3.2 4.8 0.00 0.00 0.00 72 1008.9
20260508224821 25 299 3.2 6.4 0.00 0.00 0.00 71 1008.8
20260508224318 25 256 1.6 6.4 0.00 0.00 0.00 71 1008.9
20260508223815 25 299 3.2 6.4 0.00 0.00 0.00 71 1009.1
20260508223312 25 323 1.6 3.2 0.00 0.00 0.00 69 1009.0
20260508222810 25 323 4.8 6.4 0.00 0.00 0.00 70 1008.9
20260508222307 25 313 3.2 4.8 0.00 0.00 0.00 69 1008.9
20260508221804 25 70 3.2 6.4 0.00 0.00 0.00 69 1008.9
20260508221259 25 267 1.6 4.8 0.00 0.00 0.00 70 1008.9
20260508220755 25 358 1.6 4.8 0.00 0.00 0.00 71 1008.9
20260508220252 24 289 1.6 4.8 0.00 0.00 0.00 71 1009.0
20260508215749 24 284 6.4 6.4 0.00 0.00 0.00 72 1009.0
20260508215245 25 348 1.6 8.0 0.00 0.00 0.00 71 1009.0
20260508214742 25 358 1.6 6.4 0.00 0.00 0.00 71 1008.8
20260508214234 25 351 3.2 4.8 0.00 0.00 0.00 69 1008.8
20260508213730 24 340 3.2 6.4 0.00 0.00 0.00 72 1008.7
20260508213227 23 328 1.6 8.0 0.00 0.00 0.00 73 1008.6
20260508212724 25 264 3.2 6.4 0.00 0.00 0.00 72 1008.6
20260508212220 23 305 1.6 6.4 0.00 0.00 0.00 74 1008.7
20260508211715 23 303 6.4 8.0 0.00 0.00 0.00 78 1009.0
20260508211212 22 318 3.2 4.8 0.00 0.00 0.00 81 1008.5
20260508210709 22 304 6.4 8.0 0.00 0.00 0.00 81 1009.3
20260508210206 22 296 0.0 6.4 0.00 0.00 0.00 79 1009.6
20260508205703 22 252 4.8 4.8 0.00 0.00 0.00 76 1009.7
20260508205159 22 259 1.6 3.2 0.00 0.00 0.00 76 1010.5
20260508204655 22 258 3.2 3.2 0.00 0.00 0.00 76 1010.6
20260508204152 22 357 1.6 3.2 0.00 0.00 0.00 76 1010.5
20260508203648 22 191 0.0 6.4 0.00 0.00 0.00 76 1010.8
20260508203144 22 84 1.6 6.4 0.00 0.00 0.00 77 1010.9
20260508202641 23 120 0.0 6.4 0.00 0.00 0.00 76 1011.0
20260508202138 23 293 0.0 3.2 0.00 0.00 0.00 75 1010.7
20260508201634 23 42 0.0 3.2 0.00 0.00 0.00 74 1011.0
20260508201131 23 100 0.0 4.8 0.00 0.00 0.00 74 1010.9
20260508200628 23 336 0.0 3.2 0.00 0.00 0.00 74 1010.6
20260508200124 23 61 0.0 8.0 0.00 0.00 0.00 72 1010.8
20260508195621 24 344 1.6 3.2 0.00 0.00 0.00 72 1010.9
20260508195117 24 287 0.0 3.2 0.00 0.00 0.00 72 1010.8
20260508194614 23 34 3.2 6.4 0.00 0.00 0.00 72 1010.9
20260508194111 24 280 3.2 4.8 0.00 0.00 0.00 71 1011.1
20260508193608 24 350 1.6 6.4 0.00 0.00 0.00 71 1011.1
20260508193104 25 295 1.6 4.8 0.00 0.00 0.00 69 1011.1
20260508192601 24 254 1.6 6.4 0.00 0.00 0.00 69 1011.2
20260508192058 24 339 1.6 4.8 0.00 0.00 0.00 70 1010.9
20260508191555 24 298 3.2 4.8 0.00 0.00 0.00 69 1011.1
20260508191052 25 331 1.6 8.0 0.00 0.00 0.00 70 1011.3
20260508190549 25 62 0.0 8.0 0.00 0.00 0.00 69 1011.3
20260508190045 25 308 1.6 4.8 0.00 0.00 0.00 69 1011.3
20260508185543 25 325 3.2 3.2 0.00 0.00 0.00 68 1011.3
20260508185040 25 88 3.2 4.8 0.00 0.00 0.00 67 1011.2
20260508184537 25 186 3.2 3.2 0.00 0.00 0.00 66 1011.4
20260508184034 25 303 3.2 6.4 0.00 0.00 0.00 67 1011.4
20260508183531 25 338 3.2 6.4 0.00 0.00 0.00 66 1011.4
20260508183027 26 330 1.6 6.4 0.00 0.00 0.00 65 1011.5
20260508182523 25 222 1.6 4.8 0.00 0.00 0.00 66 1011.3
20260508182020 25 279 3.2 4.8 0.00 0.00 0.00 65 1011.5
20260508181515 26 77 6.4 6.4 0.00 0.00 0.00 65 1011.7
20260508181013 25 276 4.8 6.4 0.00 0.00 0.00 65 1011.9
20260508180509 25 195 3.2 4.8 0.00 0.00 0.00 65 1011.8
20260508180006 25 327 3.2 6.4 0.00 0.00 0.00 65 1011.9
20260508175502 25 106 8.0 8.0 0.00 0.00 0.00 65 1011.9
20260508175000 25 275 3.2 6.4 0.00 0.00 0.00 64 1012.2
20260508174457 26 355 1.6 4.8 0.00 0.00 0.00 63 1012.2
20260508173954 26 93 3.2 3.2 0.00 0.00 0.00 64 1012.4
20260508173451 25 338 1.6 4.8 0.00 0.00 0.00 63 1012.3
20260508172947 25 212 0.0 6.4 0.00 0.00 0.00 64 1012.3
20260508172444 25 54 0.0 4.8 0.00 0.00 0.00 64 1012.5
20260508171940 25 266 0.0 4.8 0.00 0.00 0.00 64 1012.5
20260508171437 25 7 1.6 4.8 0.00 0.00 0.00 65 1012.5
20260508170934 25 276 1.6 6.4 0.00 0.00 0.00 65 1012.7
20260508170431 24 273 6.4 6.4 0.00 0.00 0.00 65 1012.8
20260508165928 25 45 1.6 4.8 0.00 0.00 0.00 64 1013.1
20260508165426 23 4 3.2 9.7 0.00 0.00 0.00 66 1013.2
20260508164921 23 47 1.6 4.8 0.00 0.00 0.00 66 1013.4
20260508164419 23 322 3.2 4.8 0.00 0.00 0.00 68 1013.6
20260508163916 23 181 1.6 4.8 0.00 0.00 0.00 66 1013.6
20260508163414 24 274 3.2 3.2 0.00 0.00 0.00 65 1013.8
20260508162909 24 293 3.2 4.8 0.00 0.00 0.00 64 1013.6
20260508162407 25 298 0.0 6.4 0.00 0.00 0.00 64 1013.5
20260508161903 24 296 3.2 6.4 0.00 0.00 0.00 66 1013.7
20260508161401 23 241 3.2 4.8 0.00 0.00 0.00 66 1013.9
20260508160857 23 328 3.2 4.8 0.00 0.00 0.00 66 1013.8
20260508160356 23 175 1.6 4.8 0.00 0.00 0.00 66 1013.7
20260508155852 23 11 1.6 8.0 0.00 0.00 0.00 67 1014.1
20260508155349 22 291 3.2 6.4 0.00 0.00 0.00 69 1013.9
20260508154846 22 258 4.8 6.4 0.00 0.00 0.00 67 1014.2
20260508154344 22 281 4.8 6.4 0.00 0.00 0.00 68 1014.5
20260508153840 22 272 0.0 4.8 0.00 0.00 0.00 67 1014.3
20260508153338 22 326 0.0 3.2 0.00 0.00 0.00 69 1014.3
20260508152833 21 323 3.2 3.2 0.00 0.00 0.00 70 1014.3
20260508152330 21 254 1.6 4.8 0.00 0.00 0.00 70 1014.7
20260508151826 21 71 1.6 3.2 0.00 0.00 0.00 70 1014.6
20260508151324 21 14 0.0 4.8 0.00 0.00 0.00 71 1014.6
20260508150820 21 330 1.6 3.2 0.00 0.00 0.00 70 1014.6
20260508150316 21 309 3.2 3.2 0.00 0.00 0.00 70 1014.4
20260508145807 21 310 3.2 3.2 0.00 0.00 0.00 70 1014.3
20260508145306 21 241 3.2 4.8 0.00 0.00 0.00 69 1014.2
20260508144800 21 322 3.2 4.8 0.00 0.00 0.00 67 1014.3
20260508144258 21 287 0.0 3.2 0.00 0.00 0.00 70 1014.4
20260508143755 21 43 0.0 3.2 0.00 0.00 0.00 70 1014.2
20260508143252 20 40 0.0 4.8 0.00 0.00 0.00 71 1014.4
20260508142748 20 327 1.6 4.8 0.00 0.00 0.00 73 1014.5
20260508142246 20 243 0.0 4.8 0.00 0.00 0.00 73 1014.5
20260508141742 20 308 3.2 6.4 0.00 0.00 0.00 73 1014.7
20260508141240 20 302 1.6 6.4 0.00 0.00 0.00 73 1014.7
20260508140737 20 259 3.2 6.4 0.00 0.00 0.00 71 1014.7
20260508140233 21 342 3.2 6.4 0.00 0.00 0.00 70 1014.8
20260508135730 20 33 3.2 4.8 0.00 0.00 0.00 71 1014.5
20260508135226 20 287 1.6 6.4 0.00 0.00 0.00 72 1014.6
20260508134721 20 317 1.6 8.0 0.00 0.00 0.00 73 1014.8
20260508134219 20 82 3.2 3.2 0.00 0.00 0.00 75 1014.5
20260508133716 19 326 0.0 4.8 0.00 0.00 0.00 75 1014.5
20260508133214 20 312 1.6 6.4 0.00 0.00 0.00 74 1014.6
20260508132711 20 310 4.8 4.8 0.00 0.00 0.00 75 1014.4
20260508132208 20 250 3.2 3.2 0.00 0.00 0.00 75 1014.5
20260508131703 19 267 1.6 4.8 0.00 0.00 0.00 76 1014.6
20260508131200 19 288 0.0 3.2 0.00 0.00 0.00 79 1014.6
20260508130656 18 287 1.6 3.2 0.00 0.00 0.00 80 1015.0
20260508130154 19 2 1.6 3.2 0.00 0.00 0.00 79 1015.0
20260508125649 19 321 0.0 3.2 0.00 0.00 0.00 81 1014.9
20260508125146 18 181 1.6 1.6 0.00 0.00 0.00 85 1014.9
20260508124644 17 99 0.0 1.6 0.00 0.00 0.00 91 1014.8
20260508124141 16 126 0.0 3.2 0.00 0.00 0.00 92 1015.0
20260508123640 15 164 0.0 3.2 0.00 0.00 0.00 93 1014.9
20260508123137 15 173 0.0 1.6 0.00 0.00 0.00 93 1014.7
20260508122633 15 150 0.0 1.6 0.00 0.00 0.00 93 1014.8
20260508122130 15 180 0.0 1.6 0.00 0.00 0.00 93 1014.5
20260508121628 15 290 0.0 1.6 0.00 0.00 0.00 93 1014.5
20260508121126 15 306 1.6 1.6 0.00 0.00 0.00 93 1014.6
20260508120623 15 178 0.0 1.6 0.00 0.00 0.00 93 1014.8
20260508120122 15 50 0.0 1.6 0.00 0.00 0.00 93 1014.9
20260508115619 15 175 0.0 1.6 0.00 0.00 0.00 93 1014.8
20260508115115 15 66 0.0 1.6 0.00 0.00 0.00 92 1014.9
20260508114613 15 143 0.0 3.2 0.00 0.00 0.00 92 1015.1
20260508114108 15 129 0.0 1.6 0.00 0.00 0.00 93 1015.0
20260508113606 15 235 0.0 1.6 0.00 0.00 0.00 93 1014.9
20260508113104 15 345 0.0 3.2 0.00 0.00 0.00 92 1014.9